Torna al catalogo

COSMOS 1275 DEB

AttivoPO
NORAD 13018·DEBRIS·🇷🇺 Russia

Lanciato Jun 4, 1981 da Plesetsk Cosmodrome

Loading…

Prossimi Passaggi (prossime 24 ore)

TLE

AggiornatoSource: Space-Track

Epoca: Sep 14, 2026, 02:09 UTC

1 13018U 81053EQ  26257.09016638  .00000783  00000-0  54940-3 0  9998
2 13018  82.6713 292.0139 0048799  32.9617 356.4269 13.96570189257641

Traccia COSMOS 1275 DEB in tempo reale con AllMySat

Download on the App Store